Regional Weather Roundup
Issued by NWS

Home | Current Version | Previous Version | Graphics & Text | Print | Product List | Glossary On
Versions: 1 2 3 4 5 6 7 8 9 10 11 12 13 14 15 16 17 18 19 20 21 22 23 24 25 26 27
000
ASUS45 KCYS 252110
RWRWY

WYOMING REGIONAL WEATHER ROUNDUP
NATIONAL WEATHER SERVICE CHEYENNE WY
300 PM MDT THU AUG 25 2016

NOTE:  "FAIR" INDICATES FEW OR NO CLOUDS BELOW 12,000 FEET
WITH NO SIGNIFICANT WEATHER AND/OR OBSTRUCTIONS TO VISIBILITY.

WYZ001-252200-
YELLOWSTONE NATIONAL PARK

CITY           SKY/WX    TMP DP  RH WIND       PRES   REMARKS
LK YELLOWSTONE   N/A     55  34  45 CALM      30.29F
W YELLOWSTONE  NOT AVBL

$$
WYZ002>013-054>058-071-098>099-252200-
NORTHERN WYOMING

CITY           SKY/WX    TMP DP  RH WIND       PRES   REMARKS
JACKSON        FAIR      66  28  24 S21G29    30.20
CODY           PTSUNNY   61  41  48 W3        30.23F
GREYBULL       FAIR      68  35  29 CALM      30.19F
WORLAND        FAIR      67  41  38 MISG      30.19F
SHERIDAN       CLOUDY    70  40  33 VRB7      30.22F
BUFFALO        FAIR      62  39  42 S9G16     30.27F
GILLETTE       FAIR      65  38  36 N8        30.24F
HULETT         FAIR      64  36  34 NE5       30.26F
NEWCASTLE      FAIR      63  34  34 NW8       30.26F

$$
WYZ014>020-022>026-101>103-252200-
CENTRAL WYOMING

CITY           SKY/WX    TMP DP  RH WIND       PRES   REMARKS
BIG PINEY      FAIR      64  29  26 VRB7      30.24F
PINEDALE       MOCLDY    64  30  27 S9        30.25F
DUBOIS         CLOUDY    54  36  50 NW12      30.29S
LANDER         PTSUNNY   67  42  40 VRB6      30.22F
RIVERTON       PTSUNNY   61  44  53 S5        30.24F
CASPER         FAIR      63  45  51 NE13      30.26F
DOUGLAS        CLOUDY    60  43  53 SE12      30.28F

$$
WYZ021-027>030-104>119-252200-
SOUTHERN WYOMING

CITY           SKY/WX    TMP DP  RH WIND       PRES   REMARKS
EVANSTON       FAIR      69  23  17 W6G18     30.24F
FORT BRIDGER   FAIR      65  28  24 SW15      30.29F
ROCK SPRINGS   FAIR      69  30  23 E13       30.23F
DIXON          FAIR      71  36  27 NW7       30.25F
RAWLINS        FAIR      65  33  30 CALM      30.25F
SARATOGA       MOCLDY    68  36  30 NW10G20   30.26F
LARAMIE        FAIR      63  37  38 SE24G35   30.27S
CHEYENNE       LGT RAIN  62  43  49 SE10      30.27F
TORRINGTON     PTSUNNY   71  41  33 VRB7      30.24F
PINE BLUFFS    MOCLDY    73  37  27 SE15      30.25F

$$




USA.gov is the U.S. government's official web portal to all federal, state and local government web resources and services.